Location: Sungai Bunut
(2.6333°N, 113.7333°E)
Time: 08:42:48
(UTC+00:00)

Courier 1B - Pass Details

Date: 03 December 2023
Orbit: 962 x 1209 km, 28.3° (Epoch: 03 March)

Event Time Altitude Azimuth Distance (km) Brightness Sun altitude
Exits shadow 19:15:07 - 199° (SSW) 3,575 10.5 -42.1°
Reaches altitude 10° 19:17:45 10° 184° (S) 3,106 10.3 -41.6°
Maximum altitude 19:21:04 13° 158° (SSE) 2,846 10.3 -40.8°
Drops below altitude 10° 19:24:20 10° 132° (SE) 3,046 10.7 -40.1°
Sets 19:29:01 0° 105° (ESE) 3,949 11.6 -39.1°
